Sisseton, SD

2:36 AM CDT on May 01, 2017 (GMT -0500)
Sisseton

Weather History for K8D3 - October, 2014

Change the Weather History Date:

Wednesday, October 15, 2014

  Actual Average Record
Temperature  
Mean Temperature 50 °F 47 °F  
Max Temperature 71 °F 58 °F 90 °F (1958)
Min Temperature 29 °F 36 °F 10 °F (1937)
Degree Days  
Heating Degree Days 15 18  
Month to date heating degree days 242 230  
Since 1 July heating degree days 445 475  
Cooling Degree Days 0 0  
Month to date cooling degree days 0 0  
Year to date cooling degree days 442 523  
Moisture  
Dew Point 33 °F    
Average Humidity 63    
Maximum Humidity 100    
Minimum Humidity 26    
Precipitation  
Precipitation 0.00 in 0.07 in 1.50 in (1998)
Month to date precipitation 0.06 1.24  
Year to date precipitation 21.86 20.52  
Snow  
Snow 0.00 in - - ()
Month to date snowfall 0.0  
Since 1 July snowfall 0.0  
Snow Depth 0.00 in    
Sea Level Pressure  
Sea Level Pressure 29.91 in    
Wind  
Wind Speed 10 mph (South)    
Max Wind Speed 20 mph    
Max Gust Speed 24 mph    
T = Trace of Precipitation, MM = Missing Value Source: NWS Daily Summary

Daily Weather History Graph

Daily Weather History Graph

Search for Another Location

Airport or City:

Trip Planner

Search our weather history database for the weather conditions in past years. The results will help you decide how hot, cold, wet, or windy it might be!

Date:

Astronomy

Oct. 15, 2014 Rise Set
Actual Time 7:44 AM CDT 6:42 PM CDT
Civil Twilight 7:14 AM CDT 7:12 PM CDT
Nautical Twilight 6:40 AM CDT 7:46 PM CDT
Astronomical Twilight 6:05 AM CDT 8:20 PM CDT
Moon No Moon Rise 2:34 PM CDT (10/15)
Length of Visible Light 11h 57m
Length of Day
10h 57m
Waning Gibbous, 51% of the Moon is Illuminated
Oct 15
Waning Gibbous
Oct 15
Last Quarter
Oct 23
New
Oct 30
First Quarter
Nov 6
Full

Hourly Weather History & Observations

Time (CDT) Temp. Windchill Dew Point Humidity Pressure Visibility Wind Dir Wind Speed Gust Speed Precip Events Conditions
12:56 AM 37.9 °F 35.5 °F 33.1 °F 83% 30.01 in - West 3.5 mph - N/A   Unknown
1:56 AM 37.0 °F 34.5 °F 32.0 °F 82% 30.00 in - SW 3.5 mph - N/A   Unknown
2:56 AM 35.1 °F 31.0 °F 30.9 °F 85% 30.00 in - SSE 4.6 mph - N/A   Unknown
3:56 AM 33.1 °F 30.0 °F 30.0 °F 89% 29.99 in - SSW 3.5 mph - N/A   Unknown
4:56 AM 30.9 °F 27.5 °F 28.9 °F 92% 30.00 in - South 3.5 mph - N/A   Unknown
5:56 AM 32.0 °F 25.6 °F 30.0 °F 92% 30.01 in - SE 6.9 mph - N/A   Unknown
6:56 AM 32.0 °F 27.5 °F 30.0 °F 92% 30.03 in - SSE 4.6 mph - N/A   Unknown
7:56 AM 28.9 °F - 28.0 °F 96% 30.04 in - Calm Calm - N/A   Unknown
8:56 AM 39.9 °F 37.8 °F 35.1 °F 83% 30.02 in - SSE 3.5 mph - N/A   Unknown
9:56 AM 54.0 °F - 41.0 °F 62% 30.00 in - South 6.9 mph - N/A   Unknown
10:56 AM 62.1 °F - 35.1 °F 37% 29.97 in - South 17.3 mph - N/A   Unknown
11:56 AM 64.9 °F - 34.0 °F 32% 29.95 in - SSW 17.3 mph 23.0 mph N/A   Unknown
12:56 PM 66.9 °F - 33.1 °F 28% 29.94 in - SSW 15.0 mph - N/A   Unknown
1:56 PM 69.1 °F - 33.1 °F 26% 29.90 in - SSW 13.8 mph 21.9 mph N/A   Unknown
2:56 PM 69.1 °F - 33.1 °F 26% 29.87 in - South 13.8 mph 19.6 mph N/A   Unknown
3:56 PM 70.0 °F - 33.1 °F 26% 29.85 in - South 16.1 mph 23.0 mph N/A   Unknown
4:56 PM 70.0 °F - 33.1 °F 26% 29.82 in - South 16.1 mph 23.0 mph N/A   Unknown
5:56 PM 66.9 °F - 33.1 °F 28% 29.79 in - South 15.0 mph 20.7 mph N/A   Unknown
6:56 PM 62.1 °F - 30.9 °F 31% 29.79 in - SSE 11.5 mph - N/A   Unknown
7:56 PM 55.9 °F - 33.1 °F 42% 29.79 in - South 10.4 mph - N/A   Unknown
8:56 PM 53.1 °F - 34.0 °F 48% 29.78 in - South 10.4 mph - N/A   Unknown
9:56 PM 51.1 °F - 34.0 °F 52% 29.75 in - South 10.4 mph - N/A   Unknown
10:56 PM 52.0 °F - 34.0 °F 50% 29.73 in - South 10.4 mph - N/A   Unknown
11:56 PM 51.1 °F - 35.1 °F 54% 29.70 in - South 12.7 mph - N/A   Unknown